Location: Unspecified
(42.2600°N, 0.0000°E)
Time: 01:41:35
(UTC+00:00)

ISS - Pass Details

Date: 27 May 2019
Orbit: 407 x 418 km, 51.6° (Epoch: 25 June)

Event Time Altitude Azimuth Distance (km) Brightness Sun altitude
Rises 22:54:44 0° 306° (NW) 2,363 0.8 -24.8°
Reaches altitude 10° 22:56:52 10° 310° (NW) 1,499 -0.2 -24.9°
Enters shadow 22:58:52 32° 325° (NW) 748 -2.0 -25.0°
